Epoch 2007 May 20.0 TT = JDT 2454240.5 T 2007 May 7.36767 TT MPC q 3.1614625 (2000.0) P Q z -0.0006704 Peri. 166.34539 +0.42709719 -0.04282819 +/-0.0000031 Node 113.88583 -0.89428697 +0.12753834 e 1.0021193 Incl. 98.96228 -0.13356195 -0.99090853 From 158 observations 2006 Sept. 17-2007 July 16, mean residual 0".6.
m1 = 11.7 + 5 logΔ + 7.0 log r